Location: Sungai Lasa
(2.4500°N, 113.4500°E)
Time: 03:27:14
(UTC+00:00)

Cosmos 2251 Rocket - Pass Details

Date: 03 February 2023
Orbit: 764 x 791 km, 74.0° (Epoch: 26 March)

Event Time Altitude Azimuth Distance (km) Brightness Sun altitude
Exits shadow 20:50:23 55° 199° (SSW) 923 3.8 -27.0°
Drops below altitude 10° 20:54:36 10° 174° (S) 2,314 6.2 -26.0°
Sets 20:56:58 0° 172° (S) 3,239 7.1 -25.4°
